Regional Weather Roundup
Issued by NWS Sterling, VA

Home | Current Version | Previous Version | Graphics & Text | Print | Product List | Glossary On
Versions: 1 2 3 4 5 6 7 8 9 10 11 12 13 14 15 16 17 18 19 20 21 22 23 24 25 26 27 28 29 30 31 32 33 34 35 36 37 38 39 40 41 42 43 44 45 46 47 48 49
000
ASUS41 KLWX 250511
RWRLWX

REGIONAL WEATHER ROUNDUP
NATIONAL WEATHER SERVICE BALTIMORE MD/WASHINGTON DC
100 AM EDT TUE APR 25 2017

Note: "FAIR" indicates few or no clouds below 12,000 feet
with no significant weather and/or obstructions to visibility.
 TC=TEMPERATURE CELSIUS

 * =Non NWS site. Station does not report precipitation (e.g. rain,
    snow, etc.), thunder, or fog.

DCZ001-MDZ009-015-VAZ040>042-051-053>054-250600-
WASHINGTON METRO

CITY           SKY/WX    TMP DP  RH WIND       PRES   REMARKS
WASHINGTON NAT LGT RAIN  53  51  93 NE13      29.97F
DULLES         LGT RAIN  51  48  89 NE7       29.96F
ANDREWS AFB    LGT RAIN  52  50  93 NE13      29.93F
FT BELVOIR     CLOUDY    52  49  91 N6        29.95F
QUANTICO       CLOUDY    55  53  93 NE17      29.94F
COLLEGE PARK*  CLOUDY    52  47  85 NE5       29.98S
LEESBURG*      LGT RAIN  52  52 100 NE5       29.99F
MANASSAS*      LGT RAIN  52  50  93 NE7       29.96F

$$

MDZ006>007-011-014-250600-
BALTIMORE METRO

CITY           SKY/WX    TMP DP  RH WIND       PRES   REMARKS
BWI AIRPORT    CLOUDY    52  49  89 NE9       29.98F
MD SCIENCE CTR   N/A     54  46  74 MISG      29.99F
MARTIN STATE   CLOUDY    54  50  87 NE5       30.00F
ANNAPOLIS      CLOUDY    55  51  86 NE7       29.97F
FORT MEADE*    CLOUDY    52  46  82 E5        30.01S

$$

MDZ012-015-019>023-250600-
MARYLAND EASTERN SHORE

CITY           SKY/WX    TMP DP  RH WIND       PRES   REMARKS
OCEAN CITY     CLOUDY    53  52  96 E13G23    29.93F
SALISBURY      CLOUDY    55  55 100 NE13      29.92F FOG
BAY BRIDGE AP* CLOUDY    54  50  87 NE10      29.97F
CAMBRIDGE*     CLOUDY    55  54  94 NE10G17   29.93F
EASTON*        RAIN      55  53  91 E8G17     29.99F

$$

MDZ017>025-250600-
SOUTHERN MARYLAND

CITY           SKY/WX    TMP DP  RH WIND       PRES   REMARKS
PATUXENT RIVER CLOUDY    56  56 100 NE9       29.91F
ST INIGOES     CLOUDY    57  55  93 NE16G24   29.89F
LEONARDTOWN*   CLOUDY    54  52  94 NE6       29.93F

$$

MDZ003>005-250600-
NORTH CENTRAL MARYLAND

CITY           SKY/WX    TMP DP  RH WIND       PRES   REMARKS
FREDERICK*     CLOUDY    54  52  94 N9        30.02F
HAGERSTOWN APT CLOUDY    53  43  68 NE8       29.99F
WESTMINSTER*   CLOUDY    54  45  71 E9        29.99F

$$

MDZ501>502-250600-
WESTERN MARYLAND

CITY           SKY/WX    TMP DP  RH WIND       PRES   REMARKS
OAKLAND*       FOG       41  41 100 E17G25    29.93F VSB 1/2
CUMBERLAND*    CLOUDY    52  45  76 CALM      30.04S

$$

VAZ025>031-250600-
SHENANDOAH VALLEY

CITY           SKY/WX    TMP DP  RH WIND       PRES   REMARKS
WINCHESTER*    CLOUDY    46  45  93 CALM      29.98F
FRONT ROYAL*   CLOUDY    48  48 100 N5        29.97S
LURAY*         LGT RAIN  50  50 100 NE8       29.96F
NEW MARKET*    CLOUDY    48  46  95 N10G18    29.95F
STAUNTON*      CLOUDY    48  47  97 N7        29.95F
WAYNESBORO*    CLOUDY    47  47 100 NW6       29.92F

$$

WVZ021-048>050-054>055-250600-
EASTERN WEST VIRGINIA PANHANDLE

CITY           SKY/WX    TMP DP  RH WIND       PRES   REMARKS
MARTINSBURG    CLOUDY    50  47  89 N7        29.97F
PETERSBURG*    DRIZZLE   50  48  95 CALM      29.99F

$$

VAZ036>039-050-250600-
CENTRAL FOOTHILLS

CITY           SKY/WX    TMP DP  RH WIND       PRES   REMARKS
CHARLOTTESVILL CLOUDY    52  50  93 NE16      29.91F
CULPEPER*      DRIZZLE   52  51  97 N8        29.96S
ORANGE*        CLOUDY    50  48  93 NE9G17    29.93F
GORDONSVILLE*  CLOUDY    51  50  99 NE12      29.92F
WARRENTON*     RAIN      52  48  88 NE9       29.94F

$$

VAZ055>057-250600-
NORTH AND CENTRAL PIEDMONT

CITY           SKY/WX    TMP DP  RH WIND       PRES   REMARKS
FREDERICKSBRG* CLOUDY    53  53 100 NE7       29.92F
STAFFORD*      CLOUDY    52  52 100 N7        29.97F

$$

NCZ024-NYZ072-PAZ021-071-VAZ022-071-250600-
OTHER REGIONAL OBSERVATIONS

CITY           SKY/WX    TMP DP  RH WIND       PRES   REMARKS
NEW YORK CITY  CLOUDY    51  45  79 E6        30.14F
PHILADELPHIA   CLOUDY    52  46  80 NE13      30.04F
PITTSBURGH     CLOUDY    55  44  66 E15G22    29.95F
ROANOKE        LGT RAIN  50  49  96 NE14      29.86F
RICHMOND       DRIZZLE   55  55 100 NE13      29.85F FOG
RALEIGH        RAIN      60  59  96 N6        29.67S FOG

$$

ANZ530>537-250600-
MARINE OBSERVATIONS

STATION/POSITION TIME  TEMP    WIND        PRES
                       AIR SEA DIR/SP/G
                 (UTC) (F)     (DEG/KT/KT) (MB)
THOMAS PT LIGHT  0500   53 56   40/ 11/ 13   N/A
BALT KEY BRIDGE  0448   54      70/ 12/ 15 1015.3F
COVE POINT       0442   55      80/ 19/ 26 1013.6F
LEWISETTA        0442   57 60   70/ 15/ 20 1011.9F
SOLOMONS ISLAND  0442   56 60   50/  9/ 13   N/A
PINEY POINT      0448           70/ 13/ 19   N/A

$$




USA.gov is the U.S. government's official web portal to all federal, state and local government web resources and services.